Regional Weather Roundup
Issued by NWS

Home | Current Version | Previous Version | Graphics & Text | Print | Product List | Glossary On
Versions: 1 2 3 4 5 6 7 8 9 10 11 12 13 14 15 16 17 18 19 20 21 22 23 24 25 26 27 28 29 30 31 32 33 34 35 36 37 38 39 40 41 42 43 44 45 46 47 48 49 50
006
ASUS44 KLIX 160510
RWRLA
LOUISIANA WEATHER ROUNDUP
NATIONAL WEATHER SERVICE NEW ORLEANS LA
1200 AM CDT TUE SEP 16 2014

NOTE: "FAIR" INDICATES FEW OR NO CLOUDS BELOW 12,000 FEET WITH NO
      SIGNIFICANT WEATHER AND/OR OBSTRUCTIONS TO VISIBILITY.
      SKY/WX - SKY CONDITION AND SIGNIFICANT WEATHER.
      TMP - AIR TEMPERATURE.    DP   - DEWPOINT TEMPERATURE.
      RH  - RELATIVE HUMIDITY.  PRES - PRESSURE.
      HX  - HEAT INDEX.         WCI  - WIND CHILL INDEX.

*  THESE STATIONS ARE NOT NWS OR FAA STATIONS AND ARE NOT UNDER
   NWS QUALITY CONTROL.

LAZ040-048-061>063-065-066-069-160600-
SOUTHEAST LOUISIANA

CITY           SKY/WX    TMP DP  RH WIND       PRES   REMARKS
N.O. AUDUBON     N/A     80  79  96 MISG        N/A
N.O. INTL ARPT MOCLDY    78  75  90 CALM      30.09S
N.O. LAKEFRONT CLOUDY    81  76  84 SW6       30.09F
N.O. DOWNTOWN* FAIR      82  73  74 CALM      30.09F
SLIDELL        CLOUDY    77  74  90 CALM      30.08S
BATON ROUGE    PTCLDY    75  74  96 CALM      30.09F
BOOTHVILLE     MOCLDY    81  77  88 CALM      30.09F
BELLE CHASSE   MOCLDY    77  73  87 CALM      30.08F
BOGALUSA*        N/A     76  73  87 CALM      30.10F
GALLIANO*      NOT AVBL
NEW ROADS*     MOCLDY    76  74  95 CALM      30.10S
GONZALES*      FAIR      76  76 100 CALM      30.08S
HAMMOND*       MOCLDY    77  73  88 CALM      30.11S
HOUMA*         PTCLDY    76  73  90 CALM      30.09S
PORT FOURCHON*   N/A     82  75  78 CALM      30.12S

$$

LAZ041-044-053-054-160600-
SOUTHWEST LOUISIANA

CITY           SKY/WX    TMP DP  RH WIND       PRES   REMARKS
LAKE CHARLES   MOCLDY    79  76  90 CALM      30.08S
LAFAYETTE      PTCLDY    75  74  96 N3        30.09F
PATTERSON      MOCLDY    75  75 100 CALM      30.11F
SALT POINT       N/A     81  77  88 CALM      30.08F
NEW IBERIA     PTCLDY    76  74  93 N3        30.10S
CHENAULT AIRPK PTCLDY    79  74  84 CALM      30.10S

$$

LAZ027-028-160600-
CENTRAL LOUISIANA

CITY           SKY/WX    TMP DP  RH WIND       PRES   REMARKS
FORT POLK      MOCLDY    78  74  87 E6        30.11S
ALEXANDRIA INT PTCLDY    77  73  87 CALM      30.09S
ALEXANDRIA     PTCLDY    76  73  91 CALM      30.11S

$$

LAZ001-002-160600-
NORTHWEST LOUISIANA

CITY           SKY/WX    TMP DP  RH WIND       PRES   REMARKS
SHREVEPORT     MOCLDY    75  70  84 E5        30.11S
BARKSDALE AFB  CLOUDY    73  70  89 NE2       30.12S
DTN SHREVEPORT MOCLDY    74  70  87 CALM      30.12S

$$

LAZ014-016-160600-
NORTHEAST LOUISIANA

CITY           SKY/WX    TMP DP  RH WIND       PRES   REMARKS
MONROE         PTCLDY    72  69  90 NE5       30.13R
TALLULAH       MOCLDY    76  69  79 N3        30.10F

$$




USA.gov is the U.S. government's official web portal to all federal, state and local government web resources and services.